Regional Weather Roundup
Issued by NWS

Home | Current Version | Previous Version | Text Only | Print | Product List | Glossary On
Versions: 1 2 3 4 5 6 7 8 9 10 11 12 13 14 15 16 17 18 19 20 21 22 23 24 25 26 27 28 29 30 31 32 33 34 35 36 37 38 39 40 41 42 43 44 45 46 47 48 49 50
380
ASUS44 KLIX 311305
RWRLA
LOUISIANA WEATHER ROUNDUP
NATIONAL WEATHER SERVICE NEW ORLEANS LA
800 AM CDT FRI OCT 31 2014

NOTE: "FAIR" INDICATES FEW OR NO CLOUDS BELOW 12,000 FEET WITH NO
      SIGNIFICANT WEATHER AND/OR OBSTRUCTIONS TO VISIBILITY.
      SKY/WX - SKY CONDITION AND SIGNIFICANT WEATHER.
      TMP - AIR TEMPERATURE.    DP   - DEWPOINT TEMPERATURE.
      RH  - RELATIVE HUMIDITY.  PRES - PRESSURE.
      HX  - HEAT INDEX.         WCI  - WIND CHILL INDEX.

*  THESE STATIONS ARE NOT NWS OR FAA STATIONS AND ARE NOT UNDER
   NWS QUALITY CONTROL.

LAZ040-048-061>063-065-066-069-311400-
SOUTHEAST LOUISIANA

CITY           SKY/WX    TMP DP  RH WIND       PRES   REMARKS
N.O. AUDUBON     N/A     58  55  89 MISG        N/A
N.O. INTL ARPT PTCLDY    54  50  86 W5        30.06R
N.O. LAKEFRONT CLEAR     67  49  52 NW9       30.06R
N.O. DOWNTOWN* FAIR      63  46  55 CALM      30.06R
SLIDELL        CLEAR     46  42  86 CALM      30.05R
BATON ROUGE    CLEAR     49  46  90 CALM      30.07R
BOOTHVILLE     CLEAR     64  52  64 NW5       30.05R
BELLE CHASSE   PTCLDY    52  49  89 CALM      30.05R
BOGALUSA*        N/A     43  40  89 CALM      30.06R
NEW ROADS*     FAIR      47  46  95 W3        30.08R
GONZALES*      FAIR      48  48 100 CALM      30.07R
HAMMOND*       CLEAR     48  45  87 CALM      30.07R
HOUMA*         CLEAR     54  48  82 NW3       30.07R
PORT FOURCHON* SUNNY     64  57  77 N6        30.09R

$$

LAZ041-044-053-054-311400-
SOUTHWEST LOUISIANA

CITY           SKY/WX    TMP DP  RH WIND       PRES   REMARKS
LAKE CHARLES   CLEAR     55  48  77 NW6       30.11R
LAFAYETTE      CLEAR     54  47  77 NW5       30.09R
PATTERSON      CLEAR     52  48  87 CALM      30.10R
SALT POINT       N/A     57  50  77 N5        30.08R
NEW IBERIA     CLEAR     51  47  86 CALM      30.09R
CHENAULT AIRPK NOT AVBL

$$

LAZ027-028-311400-
CENTRAL LOUISIANA

CITY           SKY/WX    TMP DP  RH WIND       PRES   REMARKS
FORT POLK      CLEAR     52  50  92 N8        30.11R
ALEXANDRIA INT CLEAR     46  45  96 CALM      30.09R
ALEXANDRIA     CLEAR     54  46  74 N5        30.10R

$$

LAZ001-002-311400-
NORTHWEST LOUISIANA

CITY           SKY/WX    TMP DP  RH WIND       PRES   REMARKS
SHREVEPORT     CLEAR     51  46  83 NW8       30.15R
BARKSDALE AFB  CLEAR     49  45  84 N7        30.15R
DTN SHREVEPORT CLEAR     53  44  71 N7        30.15R

$$

LAZ014-016-311400-
NORTHEAST LOUISIANA

CITY           SKY/WX    TMP DP  RH WIND       PRES   REMARKS
MONROE         CLEAR     52  45  77 N7        30.11R
TALLULAH       CLEAR     47  45  93 NW5       30.07R

$$




USA.gov is the U.S. government's official web portal to all federal, state and local government web resources and services.